Cosmos 1315 - Orbit

View from above orbital plane
View from above orbital plane
View from above satellite
View from above satellite

Ground track
Ground track

The orbit data is extracted from the following two-line orbital elements,

1 12903U 81103A   13168.28701468  .00006803  00000-0  19328-3 0  9097
2 12903 081.1406 231.6249 0008188 107.6600 317.8924 15.35979663734124
Epoch (UTC): 17 June 2013 06:53:18
Eccentricity: 0.0008188
inclination: 81.1406°
perigee height: 452 km
apogee height: 463 km
right ascension of ascending node: 231.6249°
argument of perigee: 107.6600°
revolutions per day: 15.35979663
mean anomaly at epoch: 317.8924°
orbit number at epoch: 73412

The dashed part of the orbit path shows where the satellite is in the earth's shadow,  

Developed and maintained by Chris Peat, Heavens-Above GmbH. Please read the updated FAQ before sending e-mail. Imprint. DLR